Location: ????????
(55.3155°N, 39.2900°E)
Time: 02:38:49
(UTC+00:00)

Cosmos 1624 Rocket - Pass Details

Date: 14 April 2024
Orbit: 755 x 781 km, 74.0° (Epoch: 18 May)

Event Time Altitude Azimuth Distance (km) Brightness Sun altitude
Rises 00:43:43 0° 331° (NNW) 3,255 7.4 -12.9°
Reaches altitude 10° 00:46:06 10° 332° (NNW) 2,320 6.6 -12.7°
Maximum altitude 00:51:23 88° 246° (WSW) 772 4.0 -12.1°
Drops below altitude 10° 00:56:35 10° 155° (SSE) 2,289 6.3 -11.5°
Sets 00:58:56 0° 156° (SSE) 3,208 7.1 -11.2°
